User: anonymous   Login
Location: Homewood
(41.1836°S, 175.9581°E)
Time: 20:48:08
(UTC+00:00)
Language:

GEOS 3 Rocket - Orbit

View from above orbital plane
View from above orbital plane
View from above satellite
View from above satellite

Ground track
Ground track

The orbit data is extracted from the following two-line orbital elements,

1 07735U 75027B   24165.58536829  .00000033  00000-0  89035-4 0  9992
2 07735 114.9746  60.1206 0036174 186.0280 174.0369 14.25097507553910
Epoch (UTC): 13 June 2024 14:02:55
Eccentricity: 0.0036174
inclination: 114.9746°
perigee height: 782 km
apogee height: 834 km
right ascension of ascending node: 60.1206°
argument of perigee: 186.0280°
revolutions per day: 14.25097507
mean anomaly at epoch: 174.0369°
orbit number at epoch: 55391

The dashed part of the orbit path shows where the satellite is in the earth's shadow,  

DLR